Latest Coastal Weather Observations for Cape Flattery

IDQ60701

Issued at 12:42 am EST Sunday 30 August 2015 (issued every 10 minutes, with the page automatically refreshed every 10 minutes)

About coastal observations | Map of coastal stations | Coastal observations for QLD | Marine services | Other Formats
Station Details ID: 031213 Name: CAPE FLATTERY Lat: -14.97 Lon: 145.31 Height: 18.5 m
Data from the previous 72 hours. | See also: Recent months at Cape Flattery
Date/Time
EST
Temp

°C
Wind Pressure Rain
since 9am
mm
Weather Cloud Vis
km
Sea
Height
m
Swell
Dir
 
Speed
knots
Gust
knots
hPa Trend Height
m
Period
s
Dir
30/12:30am 22.9 ESE 8 11 1016.3 - 0.0 - - - - - - -
30/12:00am 23.2 ESE 8 12 1016.4 - 0.0 - - - - - - -
 
Date/Time
EST
Temp

°C
Wind Pressure Rain
since 9am
mm
Weather Cloud Vis
km
Sea
Height
m
Swell
Dir
 
Speed
knots
Gust
knots
hPa Trend Height
m
Period
s
Dir
29/11:30pm 23.0 SE 9 12 1016.7 - 0.0 - - - - - - -
29/11:00pm 23.2 SE 10 15 1016.8 - 0.0 - - - - - - -
29/10:30pm 23.3 SE 9 13 1016.8 - 0.0 - - - - - - -
29/10:00pm 23.6 SE 10 14 1016.8 - 0.0 - - - - - - -
29/09:30pm 23.6 ESE 12 15 1016.8 - 0.0 - - - - - - -
29/09:00pm 23.6 SE 12 17 1017.0 - 0.0 - - - - - - -
29/08:30pm 23.6 SE 11 15 1016.9 - 0.0 - - - - - - -
29/08:00pm 23.8 SE 12 17 1016.6 - 0.0 - - - - - - -
29/07:30pm 23.8 SE 12 16 1016.2 - 0.0 - - - - - - -
29/07:00pm 23.6 SE 12 14 1015.9 - 0.0 - - - - - - -
29/06:30pm 23.7 SE 11 17 1015.7 - 0.0 - - - - - - -
29/06:00pm 24.1 SE 12 14 1015.6 - 0.0 - - - - - - -
29/05:30pm 24.8 SE 13 16 1015.4 - 0.0 - - - - - - -
29/05:00pm 25.4 SE 14 18 1015.4 - 0.0 - - - - - - -
29/04:30pm 26.1 SSE 15 19 1015.2 - 0.0 - - - - - - -
29/04:00pm 26.3 SSE 16 19 1015.2 - 0.0 - - - - - - -
29/03:30pm 26.6 SSE 16 21 1015.5 - 0.0 - - - - - - -
29/03:00pm 26.8 SE 15 19 1015.8 - 0.0 - - - - - - -
29/02:30pm 27.6 SE 16 20 1015.9 - 0.0 - - - - - - -
29/02:00pm 27.5 SE 16 21 1016.3 - 0.0 - - - - - - -
29/01:30pm 27.4 SE 15 19 1016.7 - 0.0 - - - - - - -
29/01:00pm 27.8 SE 15 20 1017.2 - 0.0 - - - - - - -
29/12:30pm 27.5 SE 15 21 1017.5 - 0.0 - - - - - - -
29/12:00pm 27.5 SE 15 19 1017.9 - 0.0 - - - - - - -
29/11:30am 27.1 SE 15 20 1018.4 - 0.0 - - - - - - -
29/11:00am 27.5 SE 15 20 1018.9 - 0.0 - - - - - - -
29/10:30am 27.0 SE 15 20 1019.2 - 0.0 - - - - - - -
29/10:00am 26.8 SE 15 21 1019.2 - 0.0 - - - - - - -
29/09:30am 26.6 SE 15 21 1019.0 - 0.0 - - - - - - -
29/09:00am 25.9 SE 14 19 1018.8 - 0.0 - - - - - - -
29/08:30am 25.3 SE 12 16 1018.4 - 0.0 - - - - - - -
29/08:00am 25.1 SE 12 16 1018.1 - 0.0 - - - - - - -
29/07:30am 24.3 SE 10 16 1017.8 - 0.0 - - - - - - -
29/07:00am 23.4 ESE 10 15 1017.4 - 0.0 - - - - - - -
29/06:30am 22.9 ESE 10 14 1017.1 - 0.0 - - - - - - -
29/06:00am 23.0 ESE 11 15 1016.7 - 0.0 - - - - - - -
29/05:30am 22.9 ESE 10 14 1016.3 - 0.0 - - - - - - -
29/05:00am 23.0 SE 11 14 1016.2 - 0.0 - - - - - - -
29/04:30am 23.2 SE 12 17 1016.2 - 0.0 - - - - - - -
29/04:00am 23.1 SE 12 15 1016.0 - 0.0 - - - - - - -
29/03:30am 22.9 ESE 10 15 1016.0 - 0.0 - - - - - - -
29/03:00am 23.2 ESE 11 17 1016.2 - 0.0 - - - - - - -
29/02:30am 23.2 SE 12 16 1016.3 - 0.0 - - - - - - -
29/02:00am 23.4 SE 13 17 1016.6 - 0.0 - - - - - - -
29/01:30am 23.5 SE 13 16 1016.9 - 0.0 - - - - - - -
29/01:00am 23.7 SE 13 17 1017.2 - 0.0 - - - - - - -
29/12:30am 23.7 SE 12 17 1017.5 - 0.0 - - - - - - -
29/12:00am 23.8 SE 14 19 1017.7 - 0.0 - - - - - - -
 
Date/Time
EST
Temp

°C
Wind Pressure Rain
since 9am
mm
Weather Cloud Vis
km
Sea
Height
m
Swell
Dir
 
Speed
knots
Gust
knots
hPa Trend Height
m
Period
s
Dir
28/11:30pm 23.7 SE 13 19 1018.0 - 0.0 - - - - - - -
28/11:00pm 23.8 SE 14 18 1018.1 - 0.0 - - - - - - -
28/10:30pm 23.7 SE 15 18 1018.2 - 0.0 - - - - - - -
28/10:00pm 23.7 SE 13 18 1018.3 - 0.0 - - - - - - -
28/09:30pm 23.8 SE 13 17 1018.3 - 0.0 - - - - - - -
28/09:00pm 23.7 SE 13 17 1018.0 - 0.0 - - - - - - -
28/08:30pm 23.7 SE 13 19 1017.7 - 0.0 - - - - - - -
28/08:00pm 23.8 SE 13 18 1017.4 - 0.0 - - - - - - -
28/07:30pm 23.7 SE 13 18 1017.1 - 0.0 - - - - - - -
28/07:00pm 23.8 SE 14 17 1016.6 - 0.0 - - - - - - -
28/06:30pm 23.9 SE 13 18 1016.3 - 0.0 - - - - - - -
28/06:00pm 24.4 SE 14 18 1016.1 - 0.0 - - - - - - -
28/05:30pm 25.0 SE 13 17 1015.8 - 0.0 - - - - - - -
28/05:00pm 26.0 SE 13 18 1015.5 - 0.0 - - - - - - -
28/04:30pm 26.1 SE 15 20 1015.2 - 0.0 - - - - - - -
28/04:00pm 26.1 SE 16 21 1015.2 - 0.0 - - - - - - -
28/03:30pm 26.8 SE 17 21 1015.2 - 0.0 - - - - - - -
28/03:00pm 27.2 SSE 17 21 1015.2 - 0.0 - - - - - - -
28/02:30pm 26.8 SE 17 22 1015.6 - 0.0 - - - - - - -
28/02:00pm 27.2 SE 17 22 1015.9 - 0.0 - - - - - - -
28/01:30pm 26.6 SE 16 21 1016.3 - 0.0 - - - - - - -
28/01:00pm 26.2 SE 17 23 1016.7 - 0.0 - - - - - - -
28/12:30pm 27.3 SSE 19 23 1017.1 - 0.0 - - - - - - -
28/12:00pm 27.6 SE 18 22 1017.6 - 0.0 - - - - - - -
28/11:30am 27.7 SE 17 22 1018.0 - 0.0 - - - - - - -
28/11:00am 26.9 SE 17 22 1018.5 - 0.0 - - - - - - -
28/10:30am 26.8 SE 18 23 1018.6 - 0.0 - - - - - - -
28/10:00am 26.9 SE 16 20 1018.7 - 0.0 - - - - - - -
28/09:30am 26.1 SE 17 22 1018.5 - 0.0 - - - - - - -
28/09:00am 25.8 SE 15 21 1018.4 - 0.2 - - - - - - -
28/08:30am 25.4 SE 15 21 1018.3 - 0.2 - - - - - - -
28/08:00am 25.0 SE 13 20 1017.9 - 0.2 - - - - - - -
28/07:30am 24.2 SE 13 20 1017.5 - 0.2 - - - - - - -
28/07:00am 23.4 SE 13 17 1017.1 - 0.2 - - - - - - -
28/06:30am 23.1 SE 14 18 1016.9 - 0.2 - - - - - - -
28/06:00am 23.1 SE 13 17 1016.6 - 0.2 - - - - - - -
28/05:30am 23.3 SE 14 19 1016.4 - 0.2 - - - - - - -
28/05:00am 23.2 SE 14 19 1016.2 - 0.2 - - - - - - -
28/04:30am 23.4 SE 11 17 1016.0 - 0.2 - - - - - - -
28/04:00am 23.1 SE 12 16 1015.9 - 0.2 - - - - - - -
28/03:30am 23.3 SE 13 19 1015.8 - 0.2 - - - - - - -
28/03:00am 23.3 SE 14 19 1015.7 - 0.2 - - - - - - -
28/02:30am 23.3 SE 14 20 1016.0 - 0.2 - - - - - - -
28/02:00am 23.2 SE 13 19 1016.5 - 0.2 - - - - - - -
28/01:30am 23.4 SE 14 19 1016.8 - 0.2 - - - - - - -
28/01:00am 23.2 SE 12 16 1017.1 - 0.2 - - - - - - -
28/12:30am 23.3 SE 13 18 1017.7 - 0.2 - - - - - - -
28/12:00am 23.4 SE 12 17 1017.9 - 0.2 - - - - - - -
 
Date/Time
EST
Temp

°C
Wind Pressure Rain
since 9am
mm
Weather Cloud Vis
km
Sea
Height
m
Swell
Dir
 
Speed
knots
Gust
knots
hPa Trend Height
m
Period
s
Dir
27/11:30pm 23.7 SE 13 20 1018.0 - 0.2 - - - - - - -
27/11:00pm 23.5 SE 13 18 1018.0 - 0.2 - - - - - - -
27/10:30pm 23.6 SE 13 18 1018.0 - 0.2 - - - - - - -
27/10:00pm 23.7 SE 13 19 1018.1 - 0.2 - - - - - - -
27/09:30pm 23.6 SE 14 19 1018.2 - 0.2 - - - - - - -
27/09:00pm 23.6 SE 14 19 1018.1 - 0.2 - - - - - - -
27/08:30pm 23.7 SE 14 20 1018.0 - 0.2 - - - - - - -
27/08:00pm 23.7 SE 13 17 1017.8 - 0.2 - - - - - - -
27/07:30pm 23.9 SE 14 20 1017.4 - 0.2 - - - - - - -
27/07:00pm 23.8 SE 11 16 1017.0 - 0.2 - - - - - - -
27/06:30pm 24.1 SSE 14 19 1016.5 - 0.2 - - - - - - -
27/06:00pm 23.7 SSE 13 17 1016.1 - 0.2 - - - - - - -
27/05:30pm 23.9 SE 12 17 1015.8 - 0.2 - - - - - - -
27/05:00pm 25.1 SE 15 19 1015.6 - 0.2 - - - - - - -
27/04:30pm 25.8 SE 16 20 1015.3 - 0.2 - - - - - - -
27/04:00pm 26.6 SE 16 21 1015.1 - 0.2 - - - - - - -
27/03:30pm 25.7 SE 17 21 1015.2 - 0.2 - - - - - - -
27/03:00pm 27.3 SE 17 22 1015.4 - 0.2 - - - - - - -
27/02:30pm 27.0 SE 16 21 1015.6 - 0.2 - - - - - - -
27/02:00pm 27.0 SE 16 22 1015.8 - 0.2 - - - - - - -
27/01:30pm 26.9 SE 16 21 1016.2 - 0.0 - - - - - - -
27/01:00pm 26.8 SE 15 22 1016.5 - 0.0 - - - - - - -
27/12:30pm 25.2 SE 14 18 1016.9 - 0.0 - - - - - - -
27/12:08pm 23.6 ESE 16 26 1017.4 - 0.0 - - - - - - -
27/12:00pm 27.0 SE 18 24 1017.4 - 0.0 - - - - - - -
27/11:30am 27.0 SE 17 22 1017.9 - 0.0 - - - - - - -
27/11:00am 27.3 SE 18 25 1018.3 - 0.0 - - - - - - -
27/10:30am 26.9 SE 17 21 1018.5 - 0.0 - - - - - - -
27/10:00am 26.7 SE 18 23 1018.6 - 0.0 - - - - - - -
27/09:30am 26.1 SE 17 23 1018.6 - 0.0 - - - - - - -
27/09:00am 25.3 SE 17 23 1018.3 - 0.0 - - - - - - -
27/08:30am 24.8 SE 17 23 1018.0 - 0.0 - - - - - - -
27/08:00am 24.6 SE 17 23 1017.6 - 0.0 - - - - - - -
27/07:30am 24.0 SE 16 22 1017.1 - 0.0 - - - - - - -
27/07:00am 23.9 SE 15 22 1016.8 - 0.0 - - - - - - -
27/06:30am 23.8 SE 15 19 1016.7 - 0.0 - - - - - - -
27/06:00am 23.1 SE 11 14 1016.3 - 0.0 - - - - - - -
27/05:30am 22.7 SE 12 15 1016.0 - 0.0 - - - - - - -
27/05:00am 22.9 SE 13 17 1015.7 - 0.0 - - - - - - -
27/04:30am 23.0 SE 11 15 1015.5 - 0.0 - - - - - - -
27/04:00am 23.0 SE 12 18 1015.6 - 0.0 - - - - - - -
27/03:30am 23.2 SE 12 17 1015.7 - 0.0 - - - - - - -
27/03:00am 23.3 SE 15 20 1016.0 - 0.0 - - - - - - -
27/02:30am 23.3 SE 13 20 1016.2 - 0.0 - - - - - - -
27/02:00am 23.7 SE 16 24 1016.4 - 0.0 - - - - - - -
27/01:30am 23.3 SE 15 19 1016.8 - 0.0 - - - - - - -
27/01:00am 23.5 SE 16 20 1017.2 - 0.0 - - - - - - -

Other Formats:

Comma delimited format used in spreadsheet applications
http://www.bom.gov.au/fwo/IDQ60701/IDQ60701.94188.axf

JavaScript Object Notation format (JSON) in row-major order
http://www.bom.gov.au/fwo/IDQ60701/IDQ60701.94188.json